Wind_Speed
22 22 22 23 24 24 22 21 21 22 23 24 24 24 24 24 24 23 22 21 20 20 20 19 19 18 17 17 17 16 16 15 15 14 14 13 12 11 11 10 10 10 9 9 9 10 9 9 9
22 22 23 23 24 23 22 22 22 22 23 24 24 25 25 25 24 24 23 22 22 21 21 21 20 20 19 19 18 18 17 16 16 16 15 14 14 13 12 12 11 11 11 11 11 11 11 10 10
22 22 23 23 24 23 23 23 23 23 24 24 24 25 25 25 25 25 24 23 22 22 22 22 22 21 21 21 20 20 19 18 17 17 17 16 15 14 14 13 13 13 13 13 13 13 12 11 11
22 22 23 24 24 24 24 24 24 24 24 24 24 24 25 25 26 25 25 25 24 24 23 23 23 22 22 22 22 21 21 20 19 19 18 18 17 16 16 15 14 14 14 14 14 14 14 13 12
22 23 23 23 23 24 24 25 24 24 25 25 25 24 24 25 26 26 26 26 26 25 25 25 24 23 23 23 23 23 22 21 20 20 20 19 18 18 18 17 16 16 16 16 16 16 15 15 14
23 23 24 23 23 24 24 24 25 25 25 25 25 25 25 26 26 27 27 26 26 26 27 26 25 25 25 24 24 24 23 23 22 21 21 20 19 18 18 18 18 18 18 17 17 17 17 16 15
24 24 23 23 23 24 24 24 25 25 25 26 26 25 25 26 26 27 27 27 26 27 27 27 27 27 26 26 26 25 25 24 23 23 22 21 20 19 19 19 19 19 19 18 18 18 18 18 17
24 24 23 23 23 23 24 24 25 25 25 26 26 26 26 26 27 28 28 27 27 27 28 28 28 28 28 27 27 26 26 26 25 24 23 22 22 21 20 20 20 20 19 19 19 19 19 20 19
25 25 24 23 24 24 24 25 25 26 27 27 27 27 27 28 28 28 29 28 28 28 28 28 28 29 30 29 29 28 28 28 27 26 25 24 23 23 22 22 22 21 21 20 20 19 19 20 20
27 26 25 25 25 25 25 25 26 26 27 27 28 28 28 28 28 28 29 29 28 29 29 29 29 29 31 31 30 30 30 29 29 28 27 26 25 24 24 24 23 23 23 22 21 21 21 21 21
28 27 26 26 26 26 26 26 27 27 27 28 28 29 29 29 29 29 30 30 29 29 30 30 30 30 30 32 33 32 32 31 30 30 29 28 27 26 25 25 25 24 24 24 23 23 23 23 23
30 28 28 28 28 27 27 27 27 27 27 28 28 29 30 30 30 29 30 30 29 29 30 31 31 31 31 32 34 34 34 33 32 31 30 30 30 29 28 27 26 26 25 25 25 24 24 25 25
31 30 29 29 29 29 29 28 28 27 28 29 29 29 30 30 30 31 31 32 30 29 30 32 32 32 33 33 34 36 36 35 34 33 32 32 32 31 30 29 28 27 27 27 26 26 25 25 26
33 32 31 31 30 30 30 30 29 27 30 30 30 30 30 30 31 31 32 32 32 32 32 32 33 33 33 34 34 36 37 36 36 35 34 33 33 33 33 32 30 29 29 28 28 27 26 26 27
35 34 33 32 32 31 32 30 29 29 30 31 31 30 30 31 32 32 33 33 33 33 33 34 33 34 34 35 36 36 37 37 37 37 36 35 35 35 34 34 33 32 31 30 30 29 28 27 27
35 35 34 32 32 32 33 30 29 30 30 31 31 30 30 31 32 32 33 34 34 35 34 35 35 35 36 36 37 38 38 38 38 38 38 37 36 35 35 35 35 34 33 32 31 31 30 29 29
35 35 34 33 34 34 34 32 30 32 31 32 32 31 31 31 32 33 33 34 35 35 35 35 36 36 36 37 38 38 39 40 39 40 40 39 38 37 36 36 36 36 35 34 33 33 31 31 31
35 35 34 34 35 36 36 33 32 33 32 32 32 32 32 32 33 33 33 34 34 35 36 36 36 37 37 37 38 39 40 40 40 41 41 41 39 39 37 37 37 37 36 36 35 34 33 33 33
36 36 36 35 36 37 37 35 33 34 33 32 32 32 32 33 34 33 33 34 35 36 36 37 37 37 38 38 38 39 41 41 41 41 42 42 41 40 39 39 39 38 38 37 36 36 35 35 35
37 38 37 37 37 38 38 37 35 35 34 33 33 32 32 33 34 34 34 34 35 36 36 37 37 38 38 38 37 38 41 41 41 41 42 42 43 41 40 41 41 40 38 38 37 37 37 36 36
39 39 38 38 39 39 40 39 36 35 35 34 34 33 32 33 34 34 34 35 35 36 36 37 38 38 38 38 38 39 40 41 41 41 41 43 43 43 42 42 42 43 41 40 40 39 38 37 37
40 39 39 39 40 40 40 41 36 35 35 34 34 33 32 33 33 33 34 34 35 36 36 37 38 38 38 38 38 40 41 42 42 41 41 43 44 45 44 44 44 44 43 41 41 40 40 40 39
41 40 40 41 41 42 41 42 38 35 34 34 34 34 33 32 32 32 33 34 34 35 36 36 37 37 38 38 37 38 40 42 43 43 43 43 44 46 46 45 45 46 44 43 43 42 42 42 42
41 41 41 41 41 43 40 42 40 36 33 33 34 34 34 32 32 31 31 32 33 34 35 36 37 37 38 38 39 39 39 42 42 43 44 44 44 45 47 48 47 47 46 46 45 45 44 43 43
40 40 40 41 42 43 40 41 39 36 34 34 34 34 34 33 32 32 32 32 33 34 34 35 37 38 38 39 39 39 39 41 42 44 45 45 45 46 47 47 48 48 48 48 46 46 46 46 45
39 40 40 41 43 42 41 40 37 36 34 34 34 35 35 34 33 32 32 33 33 33 33 34 36 37 38 39 40 40 41 42 43 44 46 46 46 47 47 48 49 49 49 49 49 47 47 47 47
39 40 39 41 43 44 44 41 38 35 34 34 34 35 35 34 34 33 33 33 33 32 32 32 34 36 37 38 39 40 41 43 43 44 45 46 46 47 47 48 49 50 50 49 49 49 47 46 46
40 39 39 41 42 43 44 42 39 36 35 35 35 35 36 35 34 34 33 32 32 33 32 32 33 35 37 37 37 39 40 40 42 43 44 45 46 47 47 48 48 49 49 49 48 47 47 46 45
40 40 40 41 42 42 43 42 38 35 35 36 35 35 35 35 34 34 34 34 33 34 33 33 34 34 35 37 38 38 38 39 40 42 43 43 43 44 45 46 47 47 48 48 47 46 46 47 46
40 39 39 40 41 42 43 41 37 35 35 35 35 36 35 35 34 34 34 34 34 34 34 34 34 35 35 36 36 36 37 37 38 38 39 40 40 41 42 44 45 45 46 47 47 47 46 46 46
Wind_Direction
260 260 260 259 259 260 262 263 261 258 256 254 252 250 249 248 248 248 246 243 243 243 243 243 244 244 244 243 242 241 240 238 237 233 233 235 236 239 240 241 242 242 243 244 244 243 247 247 250
261 261 260 260 261 263 263 262 260 258 257 255 253 250 248 246 247 247 246 244 242 242 243 244 245 246 246 244 243 242 242 239 237 236 235 235 237 239 242 243 244 244 245 245 247 248 249 250 251
262 261 261 260 261 263 263 261 259 258 257 256 254 251 249 247 247 247 245 244 243 242 242 244 246 247 248 245 244 243 242 240 238 237 236 237 237 239 242 245 246 246 246 248 251 253 252 251 251
262 261 261 262 262 262 262 260 259 259 257 255 253 252 250 247 246 246 245 244 244 243 242 243 245 246 247 245 243 243 242 240 239 238 238 239 239 241 242 246 248 248 248 249 251 251 250 250 249
263 263 262 262 263 263 261 260 258 257 256 254 253 252 250 247 246 246 245 244 244 244 242 243 244 245 245 245 243 242 241 241 240 240 239 240 243 243 243 246 249 251 251 251 249 248 245 248 248
266 265 265 265 264 263 261 259 258 256 255 254 254 253 251 249 247 246 245 244 245 245 244 243 243 244 244 244 243 241 241 241 241 241 240 240 243 245 245 247 249 251 253 252 247 245 244 246 247
267 266 266 266 264 263 261 259 257 256 254 253 253 253 251 249 247 246 246 247 246 245 246 245 244 245 245 244 242 242 241 241 241 241 241 241 243 245 246 248 250 252 252 249 247 246 245 246 246
267 267 267 267 266 264 262 259 257 256 254 253 253 253 252 250 249 248 248 247 246 246 246 246 246 245 246 245 243 242 240 239 240 241 242 242 243 245 247 249 251 253 249 248 247 246 247 247 247
267 267 268 268 267 265 262 259 258 257 255 254 253 253 252 251 250 250 249 248 245 247 247 247 247 246 246 245 243 242 241 239 240 242 243 244 245 246 249 250 252 251 248 247 247 247 248 248 248
267 267 268 268 267 265 263 261 259 257 256 255 254 252 252 251 251 251 250 249 247 246 247 247 248 247 246 245 244 243 242 241 240 241 243 244 246 247 248 250 251 250 248 247 248 249 250 250 250
266 266 267 267 266 265 263 262 260 257 256 256 255 254 253 253 252 251 250 250 250 248 246 247 248 248 247 246 244 243 242 242 241 241 242 244 246 247 250 250 250 249 247 247 248 251 250 251 250
266 265 266 267 266 265 263 262 261 258 256 255 257 257 256 254 252 251 249 249 251 249 247 246 248 248 248 247 246 244 243 242 242 241 242 244 246 247 250 251 250 249 247 247 248 251 252 252 251
265 264 265 266 266 265 263 262 260 259 257 256 257 257 256 255 254 252 251 249 250 250 249 248 247 247 247 247 247 245 243 243 242 241 242 243 245 246 248 250 249 248 248 248 249 250 253 253 252
264 263 264 264 265 264 263 262 261 259 257 257 257 257 256 255 254 254 254 253 252 252 250 249 247 247 247 246 246 245 243 243 242 241 242 243 244 246 247 248 247 248 248 249 250 251 254 256 254
263 263 263 264 265 264 263 262 262 260 258 257 257 256 256 255 255 255 255 255 254 253 253 252 250 247 247 247 246 245 244 243 242 241 242 243 245 246 246 247 247 247 248 249 252 252 254 257 256
262 262 262 263 264 263 263 261 261 261 259 257 257 257 256 256 255 255 256 256 257 255 255 253 250 249 247 248 247 246 245 243 242 241 242 243 244 245 246 246 246 246 247 249 252 253 254 255 255
261 262 262 261 262 262 262 262 260 260 260 259 258 259 258 256 256 256 257 258 258 256 255 254 252 250 248 247 247 246 246 243 243 242 243 243 245 245 246 246 245 245 246 249 251 252 252 254 254
264 263 263 261 261 261 261 262 260 260 260 260 259 259 260 257 257 258 257 258 257 256 256 255 254 252 248 247 248 247 244 242 242 243 244 244 245 246 246 246 246 245 247 249 251 251 252 253 254
263 262 261 261 261 261 261 261 259 259 261 261 260 259 260 258 257 258 257 257 257 256 256 256 255 253 251 249 250 247 244 241 242 244 245 245 245 247 248 246 246 246 247 249 250 251 253 254 254
261 261 261 260 261 262 261 259 258 257 259 260 259 258 261 259 257 257 257 257 257 257 257 256 256 254 253 252 253 248 244 244 244 245 245 246 245 247 249 249 248 247 249 250 251 251 253 254 255
260 262 261 261 260 261 262 258 256 256 257 259 259 258 260 260 260 257 257 258 258 259 259 258 257 256 255 254 253 249 245 246 247 247 247 247 246 248 251 250 250 248 249 251 251 251 252 254 256
260 261 261 260 260 260 261 261 254 255 256 258 259 258 259 260 259 257 257 259 259 259 259 258 256 255 255 255 254 250 249 249 248 248 248 248 248 249 251 252 250 249 250 251 252 252 253 255 257
259 259 259 259 260 259 259 260 257 255 255 256 257 258 259 261 260 259 258 260 260 260 259 257 255 255 255 254 253 252 252 251 249 248 249 250 249 249 250 250 251 250 250 252 253 253 253 255 257
257 257 257 257 258 258 259 261 260 257 256 256 257 257 257 261 260 260 260 261 262 261 260 257 256 256 256 255 255 254 254 251 250 249 250 251 250 251 251 250 250 251 250 251 253 253 253 254 256
255 256 257 257 257 259 260 260 261 260 258 257 256 257 258 259 260 259 261 262 263 263 262 259 258 258 257 256 257 256 255 253 251 251 252 252 253 252 252 250 249 249 249 250 252 252 253 253 254
253 255 256 258 259 260 259 260 260 260 258 257 257 258 259 259 261 261 261 262 262 262 262 262 261 260 258 258 258 257 256 254 253 253 254 253 253 253 252 249 248 249 249 250 251 252 253 253 254
252 253 255 258 259 260 260 259 259 259 258 257 258 258 260 261 261 261 261 262 262 261 262 263 262 260 259 259 259 258 256 256 255 254 255 254 254 253 252 250 248 249 250 249 251 252 254 256 256
253 254 255 256 258 260 260 260 259 259 259 259 259 260 261 261 262 261 261 262 261 261 261 262 263 261 260 260 260 259 257 258 257 256 256 256 255 254 253 250 248 248 249 249 249 252 254 255 256
251 251 252 255 257 258 261 260 260 261 260 260 260 261 261 260 261 262 261 261 261 261 262 263 264 264 263 262 262 259 258 259 259 258 257 257 256 253 253 251 249 248 249 249 250 252 254 256 257
251 252 252 253 255 256 259 260 260 261 261 261 261 261 261 260 260 261 261 260 260 261 262 263 265 266 266 265 263 262 260 259 259 258 258 257 255 254 254 252 249 248 249 249 249 252 255 256 257
Height
5801 5802 5803 5804 5804 5805 5806 5808 5808 5809 5810 5810 5812 5813 5815 5818 5820 5824 5825 5826 5828 5829 5831 5832 5834 5835 5836 5837 5838 5840 5841 5842 5844 5845 5847 5848 5849 5851 5852 5853 5855 5856 5857 5858 5859 5861 5862 5863 5863
5797 5798 5799 5799 5799 5800 5802 5803 5803 5803 5804 5805 5806 5808 5810 5812 5814 5817 5819 5821 5823 5825 5827 5828 5830 5831 5832 5833 5835 5836 5838 5839 5840 5842 5843 5845 5847 5848 5850 5851 5852 5853 5854 5856 5857 5858 5859 5860 5861
5792 5793 5794 5794 5794 5795 5797 5797 5798 5798 5799 5800 5801 5802 5805 5807 5809 5811 5814 5816 5818 5820 5822 5824 5825 5827 5828 5829 5831 5832 5834 5835 5837 5838 5840 5842 5844 5845 5847 5848 5849 5850 5851 5853 5854 5855 5856 5857 5858
5788 5789 5789 5790 5789 5790 5791 5792 5792 5793 5793 5794 5795 5797 5800 5802 5804 5806 5808 5811 5813 5815 5817 5819 5821 5822 5824 5825 5826 5828 5830 5832 5833 5835 5837 5838 5840 5842 5843 5845 5846 5847 5848 5849 5850 5851 5852 5853 5855
5783 5783 5784 5784 5784 5785 5785 5786 5786 5787 5788 5789 5790 5792 5794 5796 5798 5800 5803 5805 5807 5810 5812 5814 5815 5817 5819 5820 5822 5824 5826 5827 5829 5831 5833 5835 5836 5838 5840 5841 5842 5843 5844 5845 5846 5847 5848 5850 5851
5778 5778 5779 5779 5779 5779 5779 5780 5781 5782 5782 5784 5785 5787 5789 5791 5792 5795 5797 5800 5802 5804 5806 5808 5810 5812 5814 5815 5817 5819 5821 5823 5825 5827 5829 5831 5832 5834 5836 5837 5838 5839 5840 5841 5842 5843 5845 5846 5848
5773 5773 5773 5773 5773 5773 5774 5774 5775 5776 5777 5778 5780 5781 5783 5785 5787 5789 5791 5793 5796 5798 5800 5803 5805 5806 5808 5810 5812 5814 5816 5818 5820 5823 5825 5826 5828 5830 5831 5833 5834 5835 5835 5836 5838 5839 5841 5842 5844
5767 5768 5767 5768 5768 5768 5769 5769 5769 5770 5771 5772 5774 5776 5777 5779 5780 5783 5785 5787 5790 5792 5795 5797 5799 5801 5803 5805 5807 5809 5811 5813 5815 5818 5820 5822 5824 5825 5827 5828 5829 5830 5831 5832 5834 5835 5837 5839 5840
5761 5762 5762 5762 5762 5763 5763 5763 5763 5764 5765 5766 5768 5769 5771 5772 5774 5776 5779 5781 5783 5786 5788 5790 5793 5795 5797 5799 5801 5803 5805 5808 5810 5813 5815 5817 5819 5820 5822 5823 5824 5825 5826 5828 5830 5831 5833 5834 5836
5755 5756 5757 5757 5756 5757 5757 5757 5757 5758 5759 5760 5761 5763 5764 5766 5768 5770 5772 5774 5776 5779 5781 5783 5786 5788 5790 5793 5795 5797 5800 5802 5805 5807 5809 5812 5814 5815 5817 5818 5819 5820 5822 5824 5825 5827 5828 5830 5832
5749 5750 5750 5750 5750 5750 5750 5751 5751 5752 5753 5754 5755 5757 5758 5760 5761 5763 5765 5767 5769 5771 5773 5776 5778 5781 5783 5786 5788 5791 5794 5796 5799 5801 5804 5806 5808 5810 5811 5813 5814 5815 5817 5819 5820 5822 5824 5825 5827
5743 5743 5743 5743 5743 5743 5744 5744 5745 5746 5747 5747 5749 5750 5752 5753 5755 5756 5758 5760 5762 5764 5766 5769 5771 5774 5776 5778 5781 5784 5787 5790 5792 5795 5797 5800 5802 5804 5805 5807 5808 5810 5812 5813 5815 5817 5818 5820 5822
5735 5736 5736 5736 5736 5736 5737 5737 5738 5740 5740 5740 5741 5743 5745 5746 5748 5749 5751 5753 5755 5757 5759 5761 5764 5766 5768 5771 5773 5776 5779 5782 5785 5788 5790 5793 5795 5797 5799 5801 5802 5804 5806 5808 5810 5811 5813 5814 5816
5728 5728 5729 5729 5728 5729 5729 5730 5731 5734 5732 5734 5735 5736 5738 5739 5741 5742 5743 5745 5747 5749 5751 5753 5756 5758 5760 5763 5765 5768 5771 5774 5777 5780 5783 5785 5788 5790 5793 5794 5796 5798 5800 5802 5804 5805 5807 5808 5810
5720 5720 5721 5722 5721 5721 5722 5724 5725 5726 5725 5726 5728 5729 5730 5732 5733 5735 5736 5738 5739 5741 5743 5745 5747 5750 5753 5755 5758 5760 5763 5766 5769 5772 5775 5778 5780 5783 5785 5787 5789 5791 5794 5796 5797 5799 5801 5802 5803
5711 5712 5713 5715 5714 5713 5715 5717 5719 5717 5718 5719 5720 5722 5723 5724 5726 5727 5728 5730 5731 5733 5735 5737 5739 5741 5744 5747 5749 5752 5755 5758 5761 5764 5767 5769 5772 5775 5778 5780 5782 5784 5787 5789 5791 5792 5794 5795 5797
5702 5703 5705 5707 5706 5705 5706 5709 5711 5710 5710 5712 5713 5714 5715 5717 5718 5719 5721 5722 5723 5724 5726 5728 5729 5732 5735 5737 5740 5743 5746 5749 5752 5755 5758 5761 5764 5766 5769 5772 5775 5777 5779 5782 5784 5785 5787 5788 5790
5695 5696 5697 5697 5697 5697 5697 5700 5702 5701 5702 5704 5705 5706 5708 5709 5710 5711 5713 5714 5715 5716 5718 5719 5721 5723 5725 5728 5731 5733 5736 5740 5743 5746 5749 5752 5755 5758 5761 5764 5766 5769 5772 5774 5776 5778 5779 5781 5783
5685 5685 5687 5688 5687 5687 5689 5691 5694 5693 5694 5696 5697 5699 5700 5701 5702 5703 5704 5705 5707 5708 5709 5711 5712 5714 5716 5719 5721 5724 5727 5730 5734 5737 5740 5743 5747 5749 5752 5755 5758 5761 5763 5766 5768 5770 5772 5773 5775
5674 5676 5678 5679 5678 5678 5679 5681 5684 5685 5687 5688 5690 5691 5692 5693 5694 5695 5696 5697 5698 5699 5700 5702 5703 5705 5707 5710 5712 5714 5718 5721 5724 5727 5731 5734 5737 5740 5743 5746 5749 5752 5754 5757 5759 5761 5763 5765 5767
5665 5666 5668 5669 5669 5668 5669 5672 5676 5678 5679 5680 5682 5683 5684 5684 5686 5687 5688 5689 5690 5691 5692 5693 5694 5696 5698 5700 5702 5705 5708 5712 5715 5718 5721 5724 5727 5730 5733 5736 5739 5742 5745 5748 5750 5753 5755 5757 5758
5655 5657 5657 5657 5657 5658 5660 5660 5668 5669 5671 5673 5674 5675 5675 5676 5677 5678 5680 5681 5681 5682 5683 5684 5685 5687 5689 5691 5694 5696 5700 5703 5706 5709 5711 5714 5717 5720 5723 5726 5729 5732 5735 5738 5740 5743 5745 5747 5749
5645 5646 5646 5647 5647 5648 5650 5650 5657 5661 5663 5665 5666 5666 5667 5668 5669 5670 5671 5672 5673 5674 5674 5676 5677 5678 5680 5682 5685 5687 5690 5693 5695 5698 5700 5703 5706 5709 5712 5715 5718 5721 5724 5728 5730 5733 5735 5737 5739
5633 5634 5635 5635 5635 5637 5642 5642 5646 5652 5655 5656 5657 5658 5659 5660 5661 5662 5662 5663 5664 5665 5666 5667 5669 5670 5672 5673 5675 5678 5680 5682 5684 5687 5690 5692 5695 5697 5700 5703 5706 5709 5713 5716 5719 5721 5724 5726 5728
5622 5624 5624 5624 5625 5628 5633 5632 5638 5643 5646 5647 5649 5649 5650 5651 5652 5653 5654 5655 5656 5657 5658 5659 5660 5661 5663 5664 5665 5668 5669 5671 5673 5676 5678 5681 5683 5686 5688 5691 5694 5697 5701 5704 5706 5709 5712 5715 5717
5613 5614 5616 5616 5617 5620 5622 5623 5631 5634 5636 5638 5639 5640 5641 5642 5644 5645 5645 5646 5647 5648 5649 5650 5651 5652 5653 5654 5656 5657 5659 5660 5662 5664 5666 5668 5670 5673 5675 5678 5681 5684 5688 5691 5694 5697 5700 5703 5705
5601 5603 5606 5606 5606 5608 5610 5615 5621 5625 5627 5629 5630 5631 5633 5634 5635 5636 5637 5637 5638 5639 5640 5641 5642 5643 5644 5645 5646 5647 5648 5650 5651 5652 5654 5656 5658 5660 5662 5665 5668 5672 5675 5678 5681 5685 5688 5690 5693
5592 5594 5596 5596 5596 5598 5601 5606 5612 5616 5618 5620 5621 5622 5624 5625 5626 5627 5628 5629 5630 5630 5631 5632 5632 5633 5634 5635 5636 5636 5637 5638 5639 5641 5642 5643 5645 5647 5649 5652 5656 5659 5663 5666 5669 5673 5676 5679 5681
5582 5584 5584 5586 5587 5590 5591 5599 5604 5607 5608 5610 5612 5613 5615 5616 5617 5618 5619 5620 5621 5621 5622 5623 5623 5623 5624 5625 5625 5625 5626 5627 5627 5629 5630 5631 5633 5635 5637 5640 5643 5647 5651 5654 5657 5661 5664 5667 5669
5570 5572 5575 5577 5578 5580 5583 5591 5595 5597 5598 5600 5602 5603 5605 5606 5608 5609 5610 5611 5612 5612 5613 5613 5613 5614 5614 5614 5614 5614 5615 5616 5617 5617 5618 5619 5621 5623 5626 5629 5632 5636 5639 5642 5646 5649 5652 5655 5657